Zurück zum Katalog

MIDAS 5

STRONGBACK

AktivMilitärPO
NORAD 271·PAYLOAD·🇺🇸 United States

Gestartet Apr 9, 1962 von Vandenberg Space Force Base

Loading…

Nächste Überflüge (nächste 24 Stunden)

TLE

AktuellSource: Space-Track

Epoche: Sep 14, 2026, 14:03 UTC

1   271U 62010A   26257.58589134  .00000006  00000-0  59560-3 0  9998
2   271  86.6568 302.8781 0326877 279.8551  76.5601  9.41308809214082

Verfolge MIDAS 5 in Echtzeit mit AllMySat

Download on the App Store